FW0697 Weather Reports


time (UTC)temp
C
wind
direction
speed
KPH
gust
KPH
rain 1hr
cm
rain 24hr
cm
rain mn
cm
humidity
%
barometer
mb
20260905205005 37 225 6.4 14.5 0.00 0.00 0.00 50 1009.2
20260905204504 37 224 4.8 14.5 0.00 0.00 0.00 51 1009.3
20260905204005 37 212 1.6 8.0 0.00 0.00 0.00 51 1009.4
20260905202004 37 232 3.2 16.1 0.00 0.00 0.00 51 1009.6
20260905201505 37 254 4.8 14.5 0.00 0.00 0.00 50 1009.8
20260905201004 37 248 4.8 17.7 0.00 0.00 0.00 50 1009.7
20260905200504 37 226 3.2 17.7 0.00 0.00 0.00 50 1009.9
20260905200005 37 0 0.0 0.0 0.00 0.00 0.00 50 1009.9
20260905195504 36 327 0.0 3.2 0.00 0.00 0.00 51 1010.2
20260905195005 36 324 1.6 8.0 0.00 0.00 0.00 50 1010.2
20260905194504 36 321 1.6 14.5 0.00 0.00 0.00 50 1010.2
20260905194004 36 317 1.6 14.5 0.00 0.00 0.00 50 1010.4
20260905192504 36 292 0.0 8.0 0.00 0.00 0.00 50 1010.8
20260905192005 36 230 0.0 8.0 0.00 0.00 0.00 50 1010.8
20260905191005 36 0 0.0 0.0 0.00 0.00 0.00 50 1010.8
20260905190004 36 292 1.6 9.7 0.00 0.00 0.00 51 1011.0
20260905185504 36 292 1.6 9.7 0.00 0.00 0.00 50 1011.1
20260905185005 36 233 0.0 14.5 0.00 0.00 0.00 50 1011.1
20260905184504 36 233 1.6 14.5 0.00 0.00 0.00 51 1011.3
20260905182504 35 0 0.0 0.0 0.00 0.00 0.00 52 1011.5
20260905182005 35 0 0.0 0.0 0.00 0.00 0.00 52 1011.7
20260905181504 35 0 0.0 0.0 0.00 0.00 0.00 53 1011.7
20260905181004 35 0 0.0 0.0 0.00 0.00 0.00 53 1011.6
20260905180505 35 0 0.0 0.0 0.00 0.00 0.00 53 1011.8
20260905180004 35 0 0.0 0.0 0.00 0.00 0.00 55 1011.8
20260905175004 35 0 0.0 0.0 0.00 0.00 0.00 53 1011.9
20260905174504 34 0 0.0 0.0 0.00 0.00 0.00 53 1011.9
20260905174005 34 0 0.0 0.0 0.00 0.00 0.00 53 1012.0
20260905173504 34 0 0.0 0.0 0.00 0.00 0.00 53 1011.9
20260905173005 34 0 0.0 0.0 0.00 0.00 0.00 52 1012.0
20260905172504 34 0 0.0 0.0 0.00 0.00 0.00 53 1012.0
20260905172005 34 0 0.0 0.0 0.00 0.00 0.00 53 1012.2
20260905171004 34 0 0.0 0.0 0.00 0.00 0.00 53 1012.1
20260905170504 34 0 0.0 0.0 0.00 0.00 0.00 53 1012.2
20260905170004 34 0 0.0 0.0 0.00 0.00 0.00 54 1012.4
20260905165504 33 0 0.0 0.0 0.00 0.00 0.00 55 1012.4
20260905164504 33 0 0.0 0.0 0.00 0.00 0.00 56 1012.7
20260905164005 33 0 0.0 0.0 0.00 0.00 0.00 56 1012.8
20260905163004 33 120 0.0 1.6 0.00 0.00 0.00 56 1013.0
20260905162504 33 120 0.0 1.6 0.00 0.00 0.00 56 1013.2
20260905162004 33 0 0.0 0.0 0.00 0.00 0.00 58 1013.1
20260905161004 32 0 0.0 0.0 0.00 0.00 0.00 60 1012.9
20260905160504 32 199 0.0 3.2 0.00 0.00 0.00 60 1012.8
20260905160004 32 152 1.6 8.0 0.00 0.00 0.00 60 1012.9
20260905155504 32 139 1.6 8.0 0.00 0.00 0.00 61 1013.0
20260905155005 32 127 1.6 6.4 0.00 0.00 0.00 62 1013.0
20260905154504 32 127 1.6 6.4 0.00 0.00 0.00 62 1013.0
20260905154005 32 127 0.0 6.4 0.00 0.00 0.00 61 1013.1
20260905153504 31 0 0.0 0.0 0.00 0.00 0.00 62 1013.2
20260905153005 31 0 0.0 0.0 0.00 0.00 0.00 62 1013.1
20260905152504 31 0 0.0 0.0 0.00 0.00 0.00 63 1013.2
20260905152004 31 98 1.6 8.0 0.00 0.00 0.00 64 1013.2
20260905151504 31 98 1.6 8.0 0.00 0.00 0.00 66 1013.2
20260905150504 30 96 0.0 9.7 0.00 0.00 0.00 67 1013.1
20260905150005 30 94 3.2 9.7 0.00 0.00 0.00 68 1013.3
20260905145504 29 67 3.2 11.3 0.00 0.00 0.00 68 1013.4
20260905144504 28 93 4.8 12.9 0.00 0.00 0.00 69 1013.5
20260905144004 28 99 4.8 12.9 0.00 0.00 0.00 70 1013.4
20260905143504 28 87 4.8 12.9 0.00 0.00 0.00 71 1013.6
20260905143004 28 99 4.8 12.9 0.00 0.00 0.00 72 1013.5
20260905142004 27 34 3.2 12.9 0.00 0.00 0.00 75 1013.7
20260905141504 27 28 4.8 12.9 0.00 0.00 0.00 75 1013.7
20260905140504 26 34 4.8 14.5 0.00 0.00 0.00 76 1013.8
20260905140005 26 55 4.8 14.5 0.00 0.00 0.00 78 1014.0
20260905135504 26 57 4.8 11.3 0.00 0.00 0.00 80 1014.0
20260905135004 26 31 3.2 11.3 0.00 0.00 0.00 82 1013.8
20260905134504 26 17 3.2 11.3 0.00 0.00 0.00 82 1014.1
20260905133504 26 20 4.8 14.5 0.00 0.00 0.00 82 1014.2
20260905133004 26 34 6.4 14.5 0.00 0.00 0.00 82 1014.0
20260905132504 26 41 6.4 17.7 0.00 0.00 0.00 82 1014.1
20260905132004 26 24 6.4 17.7 0.00 0.00 0.00 81 1014.1
20260905131504 26 8 8.0 17.7 0.00 0.00 0.00 82 1014.4
20260905131004 26 12 4.8 16.1 0.00 0.00 0.00 81 1014.7
20260905130004 26 17 4.8 14.5 0.00 0.00 0.00 81 1014.6
20260905125504 26 23 6.4 14.5 0.00 0.00 0.00 80 1014.3
20260905125005 27 21 6.4 20.9 0.00 0.00 0.00 79 1014.1
20260905124504 27 14 4.8 20.9 0.00 0.00 0.00 78 1014.1
20260905124004 27 26 1.6 17.7 0.00 0.00 0.00 78 1014.2
20260905123504 27 55 1.6 4.8 0.00 0.00 0.00 77 1013.4
20260905123005 27 55 1.6 6.4 0.00 0.00 0.00 78 1013.3
20260905122504 27 51 4.8 11.3 0.00 0.00 0.00 78 1012.9
20260905122005 27 44 4.8 11.3 0.00 0.00 0.00 78 1012.8
20260905121504 27 27 4.8 11.3 0.00 0.00 0.00 79 1012.8
20260905121005 27 20 3.2 11.3 0.00 0.00 0.00 78 1012.9
20260905120004 27 15 1.6 9.7 0.00 0.00 0.00 79 1013.2
20260905115503 27 15 1.6 9.7 0.00 0.00 0.00 79 1013.0
20260905115004 27 16 1.6 6.4 0.00 0.00 0.00 78 1013.1
20260905114504 27 12 1.6 9.7 0.00 0.00 0.00 78 1013.0
20260905114004 27 11 1.6 9.7 0.00 0.00 0.00 78 1012.6
20260905113504 27 10 0.0 4.8 0.00 0.00 0.00 78 1012.6
20260905113005 27 10 0.0 6.4 0.00 0.00 0.00 79 1012.5
20260905112504 27 9 1.6 6.4 0.00 0.00 0.00 79 1012.4
20260905112004 27 9 3.2 6.4 0.00 0.00 0.00 79 1012.5
20260905111503 27 8 3.2 9.7 0.00 0.00 0.00 79 1012.5
20260905111004 27 17 3.2 12.9 0.00 0.00 0.00 79 1012.4
20260905110504 27 31 4.8 12.9 0.00 0.00 0.00 79 1012.2
20260905110004 27 29 6.4 19.3 0.00 0.00 0.00 79 1012.2
20260905105504 28 6 6.4 19.3 0.00 0.00 0.00 79 1012.2
20260905105004 28 327 3.2 17.7 0.00 0.00 0.00 78 1012.1
20260905104504 28 304 3.2 6.4 0.00 0.00 0.00 77 1011.6
20260905104004 28 303 3.2 6.4 0.00 0.00 0.00 77 1011.6
20260905103004 28 304 1.6 4.8 0.00 0.00 0.00 76 1011.4
20260905102504 28 303 1.6 4.8 0.00 0.00 0.00 76 1011.5
20260905102004 28 304 1.6 8.0 0.00 0.00 0.00 76 1011.5
20260905101504 28 304 3.2 8.0 0.00 0.00 0.00 76 1011.5
20260905101005 28 306 4.8 9.7 0.00 0.00 0.00 75 1011.5
20260905100504 28 312 3.2 9.7 0.00 0.00 0.00 75 1011.5
20260905100005 28 320 1.6 6.4 0.00 0.00 0.00 75 1011.6
20260905095504 28 321 0.0 3.2 0.00 0.00 0.00 74 1011.6
20260905095004 28 0 0.0 0.0 0.00 0.00 0.00 74 1011.4
20260905094503 28 0 0.0 0.0 0.00 0.00 0.00 74 1011.4
20260905094004 28 0 0.0 0.0 0.00 0.00 0.00 73 1011.5
20260905093504 28 0 0.0 0.0 0.00 0.00 0.00 73 1011.5
20260905093005 28 0 0.0 0.0 0.00 0.00 0.00 73 1011.4
20260905092504 28 0 0.0 0.0 0.00 0.00 0.00 73 1011.3
20260905092004 28 321 0.0 1.6 0.00 0.00 0.00 73 1011.2
20260905091504 28 320 0.0 1.6 0.00 0.00 0.00 72 1011.3
20260905091004 28 321 0.0 1.6 0.00 0.00 0.00 72 1011.3
20260905090503 28 321 0.0 4.8 0.00 0.00 0.00 72 1011.3
20260905090004 28 316 0.0 9.7 0.00 0.00 0.00 72 1011.3
20260905085503 28 314 0.0 9.7 0.00 0.00 0.00 72 1011.3
20260905085004 28 0 0.0 0.0 0.00 0.00 0.00 72 1011.4
20260905084004 28 303 1.6 12.9 0.00 0.00 0.00 73 1011.3
20260905083504 28 307 4.8 12.9 0.00 0.00 0.00 73 1011.3
20260905083004 28 311 1.6 11.3 0.00 0.00 0.00 74 1011.4
20260905082504 28 305 0.0 3.2 0.00 0.00 0.00 76 1011.4
20260905082005 29 0 0.0 0.0 0.00 0.00 0.00 76 1011.0
20260905081005 29 0 0.0 0.0 0.00 0.00 0.00 76 1011.1
20260905080504 29 0 0.0 0.0 0.00 0.00 0.00 76 1010.9
20260905080005 29 0 0.0 0.0 0.00 0.00 0.00 76 1011.0
20260905075504 29 0 0.0 0.0 0.00 0.00 0.00 76 1011.0
20260905075004 28 0 0.0 0.0 0.00 0.00 0.00 76 1011.2
20260905074504 28 0 0.0 0.0 0.00 0.00 0.00 76 1011.0
20260905074004 28 302 0.0 1.6 0.00 0.00 0.00 76 1011.3
20260905073503 28 301 3.2 19.3 0.00 0.00 0.00 77 1011.4
20260905072004 29 0 0.0 0.0 0.00 0.00 0.00 77 1011.4
20260905071504 29 0 0.0 0.0 0.00 0.00 0.00 77 1011.5
20260905071004 29 0 0.0 0.0 0.00 0.00 0.00 77 1011.3
20260905065504 29 0 0.0 0.0 0.00 0.00 0.00 77 1011.5
20260905065004 29 0 0.0 0.0 0.00 0.00 0.00 76 1011.6
20260905064004 29 0 0.0 0.0 0.00 0.00 0.00 76 1011.7
20260905062504 29 0 0.0 0.0 0.00 0.00 0.00 75 1011.9
20260905062005 29 0 0.0 0.0 0.00 0.00 0.00 75 1012.0
20260905061504 29 0 0.0 0.0 0.00 0.00 0.00 75 1012.0
20260905061004 30 0 0.0 0.0 0.00 0.00 0.00 74 1012.3
20260905060004 30 0 0.0 0.0 0.00 0.00 0.00 74 1012.3
20260905055504 30 0 0.0 0.0 0.00 0.00 0.00 74 1012.3
20260905055005 30 0 0.0 0.0 0.00 0.00 0.00 74 1012.2
20260905054504 30 0 0.0 0.0 0.00 0.00 0.00 74 1012.3
20260905054005 30 0 0.0 0.0 0.00 0.00 0.00 73 1012.3
20260905053505 30 0 0.0 0.0 0.00 0.00 0.00 73 1012.3
20260905053006 30 0 0.0 0.0 0.00 0.00 0.00 73 1012.2
20260905052006 30 0 0.0 0.0 0.00 0.00 0.00 72 1012.3
20260905051505 30 0 0.0 0.0 0.00 0.00 0.00 72 1012.3
20260905051005 30 0 0.0 0.0 0.00 0.00 0.00 72 1012.2
20260905050005 30 0 0.0 0.0 0.00 0.00 0.00 72 1012.3
20260905045006 30 0 0.0 0.0 0.00 0.00 0.00 71 1012.3
20260905044505 30 0 0.0 0.0 0.00 0.00 0.00 71 1012.3
20260905044005 30 0 0.0 0.0 0.00 0.00 0.00 71 1012.3
20260905043504 30 0 0.0 0.0 0.00 0.00 0.00 71 1012.3
20260905043005 30 0 0.0 0.0 0.00 0.00 0.00 71 1012.4
20260905042505 30 0 0.0 0.0 0.00 0.00 0.00 71 1012.3
20260905042005 30 0 0.0 0.0 0.00 0.00 0.00 71 1012.4
20260905041505 30 0 0.0 0.0 0.00 0.00 0.00 71 1012.3
20260905041006 30 0 0.0 0.0 0.00 0.00 0.00 71 1012.3
20260905040505 30 0 0.0 0.0 0.00 0.00 0.00 71 1012.4
20260905040006 30 0 0.0 0.0 0.00 0.00 0.00 71 1012.3
20260905035505 30 0 0.0 0.0 0.00 0.00 0.00 71 1012.3
20260905035006 30 0 0.0 0.0 0.00 0.00 0.00 71 1012.3
20260905034005 31 0 0.0 0.0 0.00 0.00 0.00 71 1012.3
20260905033504 31 0 0.0 0.0 0.00 0.00 0.00 70 1012.4
20260905033005 31 0 0.0 0.0 0.00 0.00 0.00 70 1012.4
20260905032504 31 0 0.0 0.0 0.00 0.00 0.00 70 1012.3
20260905032005 31 0 0.0 0.0 0.00 0.00 0.00 70 1012.4
20260905031504 31 0 0.0 0.0 0.00 0.00 0.00 69 1012.4
20260905031005 31 0 0.0 0.0 0.00 0.00 0.00 69 1012.5
20260905030005 31 0 0.0 0.0 0.00 0.00 0.00 68 1012.5
20260905025505 31 0 0.0 0.0 0.00 0.00 0.00 68 1012.6
20260905025006 31 0 0.0 0.0 0.00 0.00 0.00 68 1012.5
20260905024505 31 0 0.0 0.0 0.00 0.00 0.00 68 1012.6
20260905024006 31 0 0.0 0.0 0.00 0.00 0.00 68 1012.5
20260905023005 31 0 0.0 0.0 0.00 0.00 0.00 67 1012.3
20260905022005 32 0 0.0 0.0 0.00 0.00 0.00 66 1012.3
20260905021504 32 0 0.0 0.0 0.00 0.00 0.00 66 1012.3
20260905021005 32 0 0.0 0.0 0.00 0.00 0.00 66 1012.3
20260905020504 32 0 0.0 0.0 0.00 0.00 0.00 66 1012.3
20260905020005 32 0 0.0 0.0 0.00 0.00 0.00 66 1012.1
20260905014505 32 0 0.0 0.0 0.00 0.00 0.00 66 1012.1
20260905014005 32 0 0.0 0.0 0.00 0.00 0.00 66 1012.0
20260905013005 32 221 1.6 8.0 0.00 0.00 0.00 66 1012.0
20260905012505 32 221 3.2 8.0 0.00 0.00 0.00 65 1011.9
20260905012005 33 221 3.2 8.0 0.00 0.00 0.00 63 1011.9
20260905011504 33 222 3.2 8.0 0.00 0.00 0.00 63 1011.9
20260905011005 33 221 1.6 8.0 0.00 0.00 0.00 62 1011.7
20260905010504 33 221 1.6 6.4 0.00 0.00 0.00 62 1011.9
20260905010005 34 222 3.2 8.0 0.00 0.00 0.00 60 1011.7
20260905005504 34 221 3.2 8.0 0.00 0.00 0.00 59 1011.7
20260905005005 34 221 1.6 6.4 0.00 0.00 0.00 59 1011.6
20260905004504 34 222 3.2 8.0 0.00 0.00 0.00 58 1011.7
20260905004005 35 222 3.2 8.0 0.00 0.00 0.00 58 1011.6
20260905003505 35 222 3.2 8.0 0.00 0.00 0.00 57 1011.5
20260905003005 35 221 1.6 8.0 0.00 0.00 0.00 57 1011.5
20260905002504 35 222 0.0 3.2 0.00 0.00 0.00 56 1011.4
20260905002005 35 222 0.0 3.2 0.00 0.00 0.00 56 1011.3
20260905001005 35 221 3.2 8.0 0.00 0.00 0.00 55 1011.4
20260905000505 35 222 4.8 9.7 0.00 0.00 0.00 55 1011.4
20260905000004 35 224 6.4 9.7 0.00 0.00 0.00 55 1011.3
20260904235505 35 223 4.8 9.7 0.00 0.00 0.00 54 1011.3
20260904235005 35 218 4.8 9.7 0.00 0.00 0.00 54 1011.3
20260904234505 35 218 3.2 9.7 0.00 0.00 0.00 54 1011.3
20260904233504 36 12 1.6 6.4 0.00 0.00 0.00 53 1011.4
20260904233005 36 16 1.6 6.4 0.00 0.00 0.00 52 1011.2
20260904232504 36 16 3.2 9.7 0.00 0.00 0.00 52 1011.3
20260904232005 36 17 1.6 9.7 0.00 0.00 0.00 52 1011.4
20260904231504 36 18 1.6 6.4 0.00 0.00 0.00 51 1011.3
20260904231005 36 20 1.6 9.7 0.00 0.00 0.00 51 1011.3
20260904230504 36 20 3.2 9.7 0.00 0.00 0.00 51 1011.4
20260904230005 36 21 1.6 9.7 0.00 0.00 0.00 51 1011.4
20260904225005 36 21 1.6 6.4 0.00 0.00 0.00 51 1011.6
20260904224505 37 21 1.6 9.7 0.00 0.00 0.00 51 1011.4
20260904224005 37 21 3.2 9.7 0.00 0.00 0.00 50 1011.5
20260904223505 37 21 3.2 9.7 0.00 0.00 0.00 50 1011.7
20260904223005 37 22 1.6 6.4 0.00 0.00 0.00 50 1011.7
20260904222504 37 24 1.6 6.4 0.00 0.00 0.00 51 1011.7
20260904222005 37 24 4.8 14.5 0.00 0.00 0.00 51 1011.7
20260904221505 37 19 4.8 14.5 0.00 0.00 0.00 50 1011.6
20260904220504 37 355 1.6 6.4 0.00 0.00 0.00 50 1011.5
20260904220005 37 355 0.0 6.4 0.00 0.00 0.00 50 1011.6
20260904215504 37 355 1.6 6.4 0.00 0.00 0.00 50 1011.6
20260904215005 37 354 3.2 9.7 0.00 0.00 0.00 49 1011.6
20260904214005 37 344 3.2 12.9 0.00 0.00 0.00 50 1011.7
20260904212505 37 334 3.2 12.9 0.00 0.00 0.00 50 1011.7
20260904212005 37 343 4.8 12.9 0.00 0.00 0.00 49 1011.6
20260904211005 38 11 6.4 14.5 0.00 0.00 0.00 49 1011.7
20260904210504 38 330 4.8 14.5 0.00 0.00 0.00 47 1011.7
20260904210005 38 318 4.8 14.5 0.00 0.00 0.00 48 1011.8
20260904205505 38 325 4.8 12.9 0.00 0.00 0.00 46 1011.8